Regional Weather Roundup
Issued by NWS Memphis, TN

Home | Current Version | Previous Version | Text Only | Print | Product List | Glossary On
Versions: 1 2 3 4 5 6 7 8 9 10 11 12 13 14 15 16 17 18 19 20 21 22 23 24 25 26 27 28 29 30 31 32 33 34 35 36 37 38 39 40 41 42 43 44 45 46 47 48 49 50
000
ASUS44 KMEG 051510
RWRMEG
MEMPHIS CWA HOURLY WEATHER ROUNDUP
NATIONAL WEATHER SERVICE MEMPHIS TN
1000 AM CDT SUN JUL 05 2015

...WEST TENNESSEE...

CITY           SKY/WX    TMP DP  RH WIND       PRES   REMARKS
MEMPHIS INTL   MOSUNNY   78  70  76 S7        30.10R
NWS MEMPHIS      N/A     79 N/A N/A MISG        N/A
JACKSON        CLOUDY    78  70  76 CALM      30.08F
LEXINGTON      CLOUDY    73  70  88 NE3       30.09S
DYERSBURG        N/A    N/A N/A N/A MISG        N/A
PARIS          PTSUNNY   75  68  78 CALM      30.09F


...EASTERN ARKANSAS...

CITY           SKY/WX    TMP DP  RH WIND       PRES   REMARKS
JONESBORO      CLOUDY    75  72  90 SE3       30.06F
WEST MEMPHIS   PTSUNNY   77  73  87 S8        30.08R
BATESVILLE     CLOUDY    75  72  88 NE3       30.06R
NEWPORT        CLOUDY    75  73  93 SE7       30.09R
WALNUT RIDGE   CLOUDY    75  70  83 CALM      30.06S
BLYTHEVILLE    PTSUNNY   78  73  84 CALM      30.07S
SEARCY         CLOUDY    74  71  91 S8        30.10R
STUTTGART      PTSUNNY   77  70  78 MISG      30.06S
PINE BLUFF     CLOUDY    72  71  97 SW8       30.08S
MONTICELLO     CLOUDY    72  72 100 SW7       30.09R FOG


...NORTH MISSISSIPPI...

CITY           SKY/WX    TMP DP  RH WIND       PRES   REMARKS
TUPELO         PTSUNNY   78  69  73 CALM      30.10F
OLIVE BRANCH   PTSUNNY   75  75 100 S8        30.10R
TUNICA         PTSUNNY   77  70  78 S5        30.09F
CLARKSDALE     PTSUNNY   73  73 100 S5        30.08F
CORINTH        PTSUNNY   77  68  73 SW6       30.10R
GREENWOOD      TSTM      72  68  87 CALM      30.08F
COLUMBUS       CLOUDY    79  70  73 S6        30.11F
STARKVILLE     CLOUDY    77  70  78 SE8       30.11F
GOLDEN TRIANGL CLOUDY    75  70  83 S7        30.11S


...SOUTHEAST MISSOURI...

CITY           SKY/WX    TMP DP  RH WIND       PRES   REMARKS
WEST PLAINS    CLOUDY    74  68  81 SW5       30.10R
POPLAR BLUFF   CLOUDY    72  71  97 CALM      30.06F FOG
CAPE GIRARDEAU SUNNY     76  71  85 CALM      30.07S HAZE


...NORTHWEST ALABAMA...

CITY           SKY/WX    TMP DP  RH WIND       PRES   REMARKS
MUSCLE SHOALS  PTSUNNY   78  68  71 VRB5      30.12S


...MIDDLE TENNESSEE...

CITY           SKY/WX    TMP DP  RH WIND       PRES   REMARKS
NASHVILLE      CLOUDY    73  72  96 W5        30.10S FOG
CLARKSVILLE    MOSUNNY   77  70  79 W6        30.08F
COLUMBIA       CLOUDY    73  72  94 CALM      30.09F


...WESTERN KENTUCKY...

CITY           SKY/WX    TMP DP  RH WIND       PRES   REMARKS
PADUCAH        MOSUNNY   74  69  85 CALM      30.08R HAZE
FORT CAMPBELL  MOSUNNY   76  70  83 VRB5      30.08S


...CENTRAL ARKANSAS...

CITY           SKY/WX    TMP DP  RH WIND       PRES   REMARKS
LITTLE ROCK    CLOUDY    76  70  82 S7        30.07R


SKY/WX REPORTED AS FAIR MEANS FEW OR NO CLOUDS BELOW
12 THOUSAND FEET.



USA.gov is the U.S. government's official web portal to all federal, state and local government web resources and services.